Regional Weather Roundup
Issued by NWS

Home | Current Version | Previous Version | Graphics & Text | Print | Product List | Glossary On
Versions: 1 2 3 4 5 6 7 8 9 10 11 12 13 14 15 16 17 18 19 20 21 22 23 24 25 26 27 28 29 30 31 32 33 34 35 36 37 38 39 40 41 42 43 44 45 46 47 48 49 50
000
ASUS43 KBIS 270202
RWRND

NORTH DAKOTA REGIONAL WEATHER ROUNDUP
NATIONAL WEATHER SERVICE BISMARCK ND
900 PM CDT WED APR 26 2017

NOTE: "FAIR" INDICATES FEW OR NO CLOUDS BELOW 12,000 FEET WITH NO
SIGNIFICANT WEATHER AND/OR OBSTRUCTIONS TO VISIBILITY.


NDZ001>003-009>011-017-270300-
NORTHWEST NORTH DAKOTA

CITY           SKY/WX    TMP DP  RH WIND       PRES   REMARKS
WILLISTON      FAIR      44  21  40 E10       29.76S
MINOT          FAIR      40  26  57 NE8       29.77S
MINOT AFB      CLEAR     41  26  56 E10       29.77R
$$

NDZ018>021-031>035-040>046-270300-
SOUTHWEST NORTH DAKOTA

CITY           SKY/WX    TMP DP  RH WIND       PRES   REMARKS
BISMARCK       CLOUDY    40  29  64 NE14      29.76S
DICKINSON      FAIR      37  21  52 NE6       29.71F
GARRISON         N/A     40  27  59 E12       29.75S
HETTINGER ARPT CLEAR     38  24  57 NE8       29.72F
$$

NDZ004>008-012>016-024-026-027-054-270300-
NORTHEAST NORTH DAKOTA

CITY           SKY/WX    TMP DP  RH WIND       PRES   REMARKS
GRAND FORKS    LGT SNOW  32  29  88 N17       29.78S FOG
GRND FRKS AFB  LGT SNOW  30  29  96 NE18      29.78S FOG     WCI  17
DEVILS LAKE    CLOUDY    36  25  64 NE12      29.79S
$$

NDZ022-023-025-028>030-036>039-047>053-270300-
SOUTHEAST NORTH DAKOTA

CITY           SKY/WX    TMP DP  RH WIND       PRES   REMARKS
FARGO          FOG       29  28  96 N16       29.73R VSB 3/4 WCI  17
JAMESTOWN      CLOUDY    31  26  82 NE14      29.75F
$$





USA.gov is the U.S. government's official web portal to all federal, state and local government web resources and services.